TIME,DELAY(SENSOR),PRES,OXYGEN,RAWTEMP,T(OPTODE),TCPHASE,FLUOR,BETA(BETA700),BETA(BETA412),BETA(BETA440),CDOM,C(CSC),ED(ED412.40),ED(ED444.00),ED(ED489.70),ED(ED554.30),LU(LU411.80),LU(LU443.40),LU(LU489.60),LU(LU554.10),COMP,TILTX,TILTY,CHECK
1362627903,5807,885.5800170898438000,43.0978202819824200,657.4472045898438000,4.7119789123535160,54.5069007873535160,52,100,86,79,80,14852,2147756626,2147423122,2148008109,2147877760,2147635136,2147059392,2148256310,2147196580,876,4,14,20621
1362631499,5808,951.1799926757812000,46.3653907775878900,666.3632812500000000,4.4182548522949220,54.1367912292480500,53,101,88,79,80,14783,2147754075,2147420434,2148008237,2147873252,2147642258,2147059894,2148261458,2147194697,716,4,13,28213
1362635099,5810,958.2700195312500000,47.3608398437500000,668.8082275390625000,4.3375592231750490,54.0215492248535160,53,99,87,80,81,14783,2147755282,2147424466,2148009526,2147873600,2147639908,2147057526,2148256832,2147196516,590,4,14,45085
1362638699,5807,989.5000000000000000,48.2772483825683600,671.3886718750000000,4.2523121833801270,53.9265098571777340,52,101,86,79,81,14787,2147759808,2147426596,2148008182,2147871917,2147643830,2147059657,2148265472,2147198198,15,4,13,9494
1362642299,5809,984.0200195312500000,48.4597206115722660,672.2709960937500000,4.2231478691101070,53.9127311706543000,52,100,87,79,79,14782,2147757961,2147425298,2148011062,2147873938,2147638674,2147059977,2148259062,2147193728,195,4,13,22605
1362645899,5809,989.2299804687500000,48.5427017211914060,672.8460083007812000,4.2041358947753910,53.9112281799316400,53,97,86,79,81,14784,2147755465,2147423350,2148008493,2147873920,2147639250,2147057161,2148262281,2147197988,175,4,13,17706
1362649499,5808,987.5700073242188000,49.5635185241699200,673.5283813476562000,4.1815719604492190,53.7781295776367200,53,98,83,79,81,14783,2147757083,2147422326,2148008950,2147874678,2147642605,2147057453,2148259346,2147195858,87,4,13,9838
1362653099,5806,998.9699707031250000,49.4483604431152340,673.1807861328125000,4.1930680274963380,53.7854881286621100,52,123,87,79,79,14782,2147758125,2147421257,2148008018,2147874377,2147641490,2147059657,2148261513,2147195894,427,4,13,62305
1362656699,5806,997.1799926757812000,48.3519515991210940,672.9373779296875000,4.2011170387268070,53.9372215270996100,53,99,85,78,81,14781,2147755840,2147424219,2148009298,2147875629,2147639296,2147053376,2148258459,2147194971,410,4,13,28485
1362660299,5810,1001.5599975585938000,48.6243095397949200,673.3046875000000000,4.1889691352844240,53.9059791564941400,53,98,89,79,80,14781,2147759826,2147424009,2148006409,2147868818,2147640045,2147057042,2148258422,2147199360,214,4,13,43620
1362663899,5806,1008.1400146484375000,49.0515594482421900,673.2122192382812000,4.1920299530029300,53.8438987731933600,53,99,84,79,82,14776,2147755730,2147426230,2148009216,2147875300,2147644150,2147061302,2148265563,2147199524,3273,4,13,23366
1362667499,5807,1009.8499755859375000,47.8878288269043000,671.5541992187500000,4.2468428611755370,53.9818992614746100,53,101,85,79,79,14778,2147758601,2147422665,2148007094,2147871369,2147643200,2147057536,2148264356,2147194733,3403,4,13,53702
1362671099,5813,1008.1099853515625000,47.6631813049316400,671.5897216796875000,4.2456679344177250,54.0152397155761700,52,100,87,80,80,14777,2147757312,2147422116,2148011611,2147873737,2147643977,2147053394,2148263643,2147198363,77,4,13,26763
1362674699,5808,1009.6699829101562000,47.6563301086425800,671.6652832031250000,4.2431697845458980,54.0205802917480500,53,98,84,78,80,14778,2147759734,2147424164,2148011117,2147873060,2147640091,2147055296,2148264219,2147192950,3360,4,13,4002
1362678299,5812,1008.1900024414062000,47.8097610473632800,671.6613159179688000,4.2433028221130370,53.9985694885253900,51,101,85,80,81,14777,2147759917,2147421385,2148012096,2147874176,2147641197,2147059949,2148261668,2147195648,3033,4,13,28090
1362681899,5809,1006.6699829101562000,47.6736488342285160,672.6071166992188000,4.2120361328125000,54.0252113342285160,52,98,89,78,81,14776,2147757394,2147425243,2148011904,2147877568,2147642313,2147055259,2148255186,2147193152,363,4,13,7496
1362685499,5806,999.8900146484375000,47.6455917358398440,672.7145996093750000,4.2084832191467285,54.0302810668945300,52,101,86,79,81,14776,2147754980,2147424795,2148012233,2147872219,2147641910,2147061522,2148262208,2147195053,3576,4,13,14460
1362689099,5810,999.4600219726562000,48.6605300903320300,673.4459228515625000,4.1842989921569820,53.9005317687988300,53,100,89,80,80,14773,2147757037,2147426715,2148010386,2147872676,2147643940,2147060562,2148262317,2147195693,292,4,13,53214
1362692699,5810,1010.4000244140625000,48.9393310546875000,673.1403808593750000,4.1944031715393070,53.8587303161621100,53,99,88,78,80,14776,2147757056,2147424192,2148010496,2147873261,2147642294,2147055113,2148262272,2147198244,698,4,13,64429
1362696299,5813,1006.6900024414062000,48.2290496826171900,673.1707763671875000,4.1933960914611820,53.9524497985839840,53,97,84,79,80,14778,2147758546,2147424091,2148008374,2147871899,2147641234,2147058285,2148256246,2147195958,269,4,13,28643
1362699899,5808,1006.0200195312500000,48.6642799377441400,673.8364868164062000,4.1713790893554690,53.9068984985351560,52,99,88,81,80,14774,2147757010,2147425920,2148012123,2147873142,2147640832,2147055378,2148266102,2147195712,309,4,13,10613
1362703499,5811,1003.0599975585938000,48.8829498291015600,673.5963134765625000,4.1793251037597660,53.8709602355957000,52,99,83,79,80,14777,2147756617,2147424969,2148010934,2147870262,2147641344,2147054418,2148261997,2147197696,98,4,13,55393
1362707099,5810,1006.6300048828125000,48.9447784423828100,673.5032958984375000,4.1824002265930180,53.8620910644531250,52,99,89,79,81,14774,2147757193,2147424064,2148010797,2147874075,2147640649,2147052251,2148258432,2147196845,20,4,13,29918
1362710699,5811,1010.6400146484375000,49.0299606323242200,673.2404785156250000,4.1910920143127440,53.8486404418945300,52,99,89,79,81,14772,2147756388,2147425764,2148010340,2147872018,2147640493,2147053193,2148258386,2147195547,218,4,13,2798
1362714299,5811,1008.4000244140625000,48.2913589477539060,673.7664794921875000,4.1736950874328610,53.9540596008300800,52,98,85,79,80,14770,2147757988,2147423689,2148010130,2147872768,2147642029,2147053997,2148265526,2147197220,553,4,13,53119
1362717899,5806,1011.1699829101562000,47.9875907897949200,672.5236206054688000,4.2147960662841800,53.9830894470214840,53,100,88,77,80,14771,2147757851,2147421814,2148008292,2147872301,2147641746,2147058441,2148260754,2147197385,13,4,13,36578
1362721499,5807,1005.1900024414062000,48.2998199462890600,673.2564697265625000,4.1905608177185060,53.9465599060058600,53,99,86,80,81,14768,2147757787,2147425590,2148011053,2147871542,2147639872,2147058038,2148260388,2147200685,260,4,13,6997
1362725099,5809,1000.8400268554688000,48.9264488220214840,674.3251953125000000,4.1552138328552250,53.8765106201171900,52,98,85,79,80,14771,2147752768,2147423689,2148011830,2147871497,2147640612,2147053275,2148261997,2147195629,122,4,13,30699
1362728699,5812,1002.0300292968750000,49.0471496582031250,674.4506835937500000,4.1510601043701170,53.8591003417968750,53,100,88,79,80,14769,2147756352,2147424996,2148011136,2147874066,2147643940,2147057051,2148259949,2147193261,532,4,13,62874
1362732299,5804,1007.6099853515625000,49.3806304931640600,674.4489135742188000,4.1511211395263670,53.8098182678222660,52,97,87,76,80,14764,2147758043,2147425929,2148010066,2147873261,2147640265,2147054784,2148258112,2147198198,717,4,13,20169
1362735899,5811,1017.8599853515625000,49.2642211914062500,673.3909912109375000,4.1861147880554200,53.8153495788574200,53,99,87,79,81,14766,2147760100,2147422930,2148009152,2147876754,2147642185,2147056411,2148262189,2147198582,1338,4,13,12778
1362739499,5812,1015.8400268554688000,48.3136100769043000,672.6497802734375000,4.2106227874755860,53.9401016235351560,51,99,84,79,80,14767,2147757897,2147423469,2148012452,2147874816,2147640923,2147054235,2148260361,2147195977,53,4,13,32561
1362743099,5810,1011.7199707031250000,48.2806091308593750,673.5457763671875000,4.1809940338134770,53.9528884887695300,52,99,88,78,81,14768,2147755885,2147425170,2148008768,2147875309,2147643062,2147058633,2148261366,2147192237,58,4,13,36189
1362746699,5807,1017.7100219726562000,48.0724182128906250,672.8632812500000000,4.2035641670227050,53.9776191711425800,52,98,85,82,80,14765,2147757440,2147424164,2148010870,2147875611,2147645952,2147052434,2148262025,2147199460,3064,4,13,26810
1362750299,5808,1018.3699951171875000,47.9349098205566400,671.9398193359375000,4.2340979576110840,53.9805717468261700,52,99,87,78,79,14769,2147753920,2147423149,2148009380,2147874642,2147643712,2147059108,2148260214,2147199890,3531,4,13,56023
1362753899,5811,1009.9699707031250000,47.6248512268066400,672.3760986328125000,4.2196750640869140,54.0342292785644500,52,99,86,79,80,14768,2147755254,2147427812,2148008740,2147874870,2147643026,2147056630,2148259510,2147198957,3246,4,13,48915
1362757499,5807,1012.3300170898438000,47.8081588745117200,672.8615112304688000,4.2036271095275880,54.0091209411621100,52,100,87,78,80,14767,2147756580,2147424713,2148009152,2147877769,2147641060,2147058752,2148258605,2147194980,2856,4,13,12652
1362761099,5810,1009.1500244140625000,48.3888092041015600,673.4011230468750000,4.1857800483703610,53.9348411560058600,53,100,86,80,80,14767,2147757229,2147423021,2148010212,2147875968,2147642889,2147057993,2148260608,2147196288,3223,4,13,35703
1362764699,5810,1014.4099731445312000,48.6491584777832000,673.4852294921875000,4.1830010414123535,53.8987312316894500,52,102,85,79,81,14769,2147758774,2147424256,2148011949,2147873627,2147643008,2147054180,2148261860,2147194560,181,4,13,33782
1362768299,5811,1008.4500122070312000,48.3700485229492200,673.4362182617188000,4.1846199035644530,53.9378890991210940,52,98,87,80,81,14762,2147756626,2147425270,2148009033,2147874441,2147643785,2147061595,2148258898,2147194980,3261,4,13,6204
1362771899,5807,1002.6199951171875000,49.0579299926757800,674.3718872070312000,4.1536688804626465,53.8588790893554700,52,100,83,79,79,14766,2147755858,2147425371,2148010441,2147873792,2147642614,2147064539,2148264493,2147197513,1123,4,13,34271
1362773456,5809,1004.2199707031250000,49.1831092834472660,675.2149047851562000,4.1257739067077640,53.8513412475585940,52,113,88,80,80,14836,2147756160,2147424118,2148007634,2147873161,2147641764,2147059666,2148263606,2147197037,3521,4,13,33338
